This demonstration page uses our WeatherBlox Daily Observations layout. Learn more.

Left ArrowRight Arrow

31.31129, -92.44514

Hourly Observations for July 26, 2022

Temp ( °F °C ) Dew Point ( °F °C ) Humidity (%) Winds ( mph kmh ) Pressure ( in mb ) Visibility ( mi km ) Precip ( " mm )
12:53 am 00:53 Clear 78 25.6 74 23.3 87 87 SSE 7 11 30.03 1017 10 16 0.00 0.00
1:53 am 01:53 Clear 78 25.6 74 23.3 87 87 SSE 7 11 30.02 1017 10 16 0.00 0.00
2:53 am 02:53 Clear 77 25 74 23.3 90 90 SSE 7 11 30.01 1016 10 16 0.00 0.00
3:53 am 03:53 Clear 76 24.4 73 22.8 91 91 SSE 5 7 30.00 1016 10 16 0.00 0.00
4:53 am 04:53 Clear 76 24.4 73 22.8 91 91 S 3 6 30.01 1016 10 16 0.00 0.00
5:53 am 05:53 Clear 77 25 74 23.3 90 90 SE 3 6 30.02 1017 10 16 0.00 0.00
6:53 am 06:53 Sunny 77 25 74 23.3 90 90 SSE 3 6 30.03 1017 9 14 0.00 0.00
7:53 am 07:53 Sunny 80 26.7 75 23.9 85 85 SSE 6 9 30.05 1018 10 16 0.00 0.00
8:53 am 08:53 Sunny 84 28.9 76 24.4 77 77 SSE 7 11 30.06 1018 10 16 0.00 0.00
9:53 am 09:53 Sunny 87 30.6 76 24.4 70 70 VRB 3 6 30.06 1018 10 16 0.00 0.00
10:53 am 10:53 Mostly Sunny 91 32.8 75 23.9 59 59 VRB 6 9 30.06 1018 10 16 0.00 0.00
11:53 am 11:53 Sunny 92 33.3 74 23.3 56 56 VRB 3 6 30.05 1018 10 16 0.00 0.00
12:53 pm 12:53 Mostly Sunny 94 34.4 73 22.8 51 51 WSW 6 9 30.04 1017 10 16 0.00 0.00
1:42 pm 13:42 Mostly Cloudy with Heavy Rain 89 31.7 75 23.9 63 63 undefined N/A 30.01 1016 2 3 0.11 2.79
1:53 pm 13:53 Cloudy with Rain 88 31.1 75 23.9 66 66 ESE 9 15 30.02 1017 3 5 0.16 4.06
2:40 pm 14:40 Mostly Cloudy with Thunderstorms 87 30.6 76 24.4 70 70 SSW 10 17 29.99 1016 9 14 0.00 0.00
2:53 pm 14:53 Mostly Cloudy with Thunderstorms 83 28.3 73 22.8 72 72 WSW 15 24 30.01 1016 8 13 0.01 0.25
3:36 pm 15:36 Mostly Cloudy with Nearby Thunderstorms 84 28.9 71 21.7 65 65 SSW 10 17 29.99 1015 10 16 0.00 0.00
3:53 pm 15:53 Partly Cloudy with Thunderstorms 84 28.9 75 23.9 74 74 SSW 7 11 29.99 1016 10 16 0.00 0.00
4:10 pm 16:10 Sunny with Nearby Thunderstorms 86 30 75 23.9 70 70 SSW 7 11 29.99 1015 10 16 0.00 0.00
4:19 pm 16:19 Sunny 85 29.4 75 23.9 72 72 S 7 11 30.00 1016 10 16 0.00 0.00
4:53 pm 16:53 Partly Cloudy 87 30.6 74 23.3 65 65 SE 8 13 29.99 1016 10 16 0.00 0.00
5:53 pm 17:53 Sunny 89 31.7 74 23.3 61 61 ENE 5 7 29.97 1015 10 16 0.00 0.00
6:53 pm 18:53 Mostly Cloudy 89 31.7 74 23.3 61 61 SSE 9 15 29.97 1015 10 16 0.00 0.00
7:53 pm 19:53 Sunny 86 30 75 23.9 70 70 SSE 9 15 29.98 1015 10 16 0.00 0.00
8:53 pm 20:53 Clear 83 28.3 75 23.9 77 77 SSE 6 9 30.00 1016 10 16 0.00 0.00
9:53 pm 21:53 Clear 82 27.8 74 23.3 77 77 SSE 8 13 30.02 1017 10 16 0.00 0.00
10:53 pm 22:53 Clear 81 27.2 75 23.9 82 82 SSE 9 15 30.03 1017 10 16 0.00 0.00
11:53 pm 23:53 Clear 80 26.7 75 23.9 85 85 SSE 6 9 30.03 1017 10 16 0.00 0.00

Powered by AerisWeather